AMAZONAS 4A 1 39616U 14011A 21110.83581642 -.00000253 00000-0 00000-0 0 9995 2 39616 0.1298 82.3940 0003079 300.9802 52.6573 1.00274485 25808 ASTRA 5B 1 39617U 14011B 21110.85638862 .00000154 00000-0 00000-0 0 9994 2 39617 0.0419 322.6226 0002856 71.4377 154.8978 1.00270325 25789 ARIANE 5 R/B 1 39618U 14011C 21110.77772881 .00001423 00000-0 59729-3 0 9991 2 39618 3.1274 287.3198 7174979 261.7895 18.4126 2.40980959 61113 ARIANE 5 DEB [SYLDA] 1 39619U 14011D 21110.69110482 .00009626 00000-0 28337-2 0 9999 2 39619 2.7421 13.7443 6032787 99.0165 329.4690 3.97166656 87660